When you browse on this site, cookies collect data to enhance your experience and personalize the content and advertising you see.
Visit our Privacy Policy to learn more. By continuing to use the site, you agree to this use of cookies and data.
  • In Hungary
  • List of Countries
  • For 7 days
  • Water Temperature
  • Weather Map
  • News
  • Weather Widgets
  • user-avatar
    Login

    Hourly Weather Tobolskiy

    Today, 25 February, Tuesday

    Time Temperature Precipitation Wind Pressure Humidity
    00:00 -10°C° 0.1 mm 4 mps 735 mmHg 94%
    01:00 -10°C° 0.1 mm 4 mps 735 mmHg 95%
    02:00 -9°C° 0.2 mm 3 mps 735 mmHg 95%
    03:00 -9°C° 0.2 mm 3 mps 735 mmHg 95%
    04:00 -8°C° 0 mm 2 mps 734 mmHg 95%
    05:00 -8°C° 0.1 mm 3 mps 734 mmHg 95%
    06:00 -8°C° 0.1 mm 3 mps 734 mmHg 95%
    07:00 -8°C° 0.1 mm 3 mps 734 mmHg 96%
    08:00 -7°C° 0.2 mm 3 mps 734 mmHg 95%
    09:00 -7°C° 0.2 mm 3 mps 734 mmHg 95%
    10:00 -6°C° 0.2 mm 3 mps 734 mmHg 95%
    11:00 -5°C° 0 mm 3 mps 734 mmHg 95%
    12:00 -4°C° 0 mm 4 mps 734 mmHg 95%
    13:00 -4°C° 0 mm 4 mps 734 mmHg 96%
    14:00 -3°C° 0 mm 4 mps 734 mmHg 96%
    15:00 -3°C° 0 mm 4 mps 733 mmHg 96%
    16:00 -2°C° 0 mm 5 mps 733 mmHg 96%
    17:00 -2°C° 0 mm 5 mps 733 mmHg 96%
    18:00 -2°C° 0 mm 5 mps 732 mmHg 96%
    19:00 -2°C° 0 mm 5 mps 732 mmHg 97%
    20:00 -3°C° 0 mm 6 mps 731 mmHg 96%
    21:00 -3°C° 0 mm 6 mps 731 mmHg 96%
    22:00 -3°C° 0 mm 7 mps 730 mmHg 96%
    23:00 -3°C° 0 mm 7 mps 729 mmHg 96%

    Tomorrow, 26 February, Wednesday

    Time Temperature Precipitation Wind Pressure Humidity
    00:00 -3°C° 0 mm 7 mps 728 mmHg 95%
    01:00 -4°C° 0 mm 8 mps 726 mmHg 94%
    02:00 -2°C° 0.8 mm 8 mps 725 mmHg 96%
    03:00 -2°C° 0.8 mm 8 mps 724 mmHg 97%
    04:00 -2°C° 0.8 mm 8 mps 722 mmHg 99%
    05:00 -2°C° 1.5 mm 7 mps 721 mmHg 99%
    06:00 -1°C° 1.5 mm 7 mps 720 mmHg 99%
    07:00 -1°C° 1.5 mm 7 mps 719 mmHg 99%
    08:00 -1°C° 0.9 mm 6 mps 718 mmHg 99%
    09:00 0°C° 0.9 mm 5 mps 718 mmHg 99%
    10:00 0°C° 0.9 mm 4 mps 717 mmHg 100%
    11:00 -1°C° 0.7 mm 6 mps 717 mmHg 99%
    12:00 -2°C° 0.7 mm 7 mps 717 mmHg 98%
    13:00 -3°C° 0.7 mm 9 mps 717 mmHg 98%
    14:00 -3°C° 0.1 mm 9 mps 717 mmHg 97%
    15:00 -4°C° 0.1 mm 10 mps 717 mmHg 95%
    16:00 -4°C° 0.1 mm 11 mps 717 mmHg 94%
    17:00 -4°C° 0.5 mm 11 mps 718 mmHg 94%
    18:00 -5°C° 0.5 mm 12 mps 718 mmHg 94%
    19:00 -6°C° 0.5 mm 12 mps 719 mmHg 94%
    20:00 -5°C° 0.3 mm 12 mps 720 mmHg 92%
    21:00 -5°C° 0.3 mm 12 mps 721 mmHg 91%
    22:00 -5°C° 0.3 mm 12 mps 722 mmHg 90%
    23:00 -6°C° 0 mm 12 mps 723 mmHg 87%

    Day after tomorrow, 27 February, Thursday

    Time Temperature Precipitation Wind Pressure Humidity
    00:00 -7°C° 0 mm 12 mps 724 mmHg 84%
    01:00 -8°C° 0 mm 11 mps 725 mmHg 82%
    02:00 -8°C° 0 mm 11 mps 726 mmHg 82%
    03:00 -9°C° 0 mm 11 mps 727 mmHg 82%
    04:00 -9°C° 0 mm 11 mps 728 mmHg 82%
    05:00 -11°C° 0 mm 11 mps 729 mmHg 83%
    06:00 -12°C° 0 mm 10 mps 730 mmHg 83%
    07:00 -12°C° 0 mm 10 mps 731 mmHg 83%
    08:00 -11°C° 0 mm 9 mps 732 mmHg 83%
    09:00 -12°C° 0 mm 9 mps 733 mmHg 82%
    10:00 -12°C° 0 mm 8 mps 735 mmHg 82%
    11:00 -11°C° 0 mm 8 mps 735 mmHg 80%
    12:00 -10°C° 0 mm 8 mps 736 mmHg 79%
    13:00 -8°C° 0 mm 8 mps 737 mmHg 77%
    14:00 -8°C° 0 mm 7 mps 737 mmHg 79%
    15:00 -8°C° 0 mm 7 mps 738 mmHg 82%
    16:00 -8°C° 0 mm 6 mps 739 mmHg 84%
    17:00 -8°C° 0 mm 6 mps 739 mmHg 86%
    18:00 -6°C° 0 mm 6 mps 739 mmHg 88%
    19:00 -6°C° 0 mm 5 mps 740 mmHg 91%
    20:00 -6°C° 0 mm 5 mps 740 mmHg 90%
    21:00 -5°C° 0 mm 5 mps 740 mmHg 90%
    22:00 -5°C° 0 mm 5 mps 741 mmHg 89%
    23:00 -5°C° 0 mm 5 mps 741 mmHg 88%

    28 February, Friday

    Time Temperature Precipitation Wind Pressure Humidity
    00:00 -6°C° 0 mm 5 mps 741 mmHg 88%
    01:00 -6°C° 0 mm 5 mps 741 mmHg 87%
    02:00 -6°C° 0 mm 5 mps 741 mmHg 85%
    03:00 -7°C° 0 mm 5 mps 742 mmHg 84%
    04:00 -7°C° 0 mm 5 mps 742 mmHg 82%
    05:00 -7°C° 0 mm 5 mps 742 mmHg 81%
    06:00 -8°C° 0 mm 5 mps 742 mmHg 80%
    07:00 -8°C° 0 mm 5 mps 742 mmHg 79%
    08:00 -7°C° 0 mm 5 mps 742 mmHg 77%
    09:00 -6°C° 0 mm 5 mps 742 mmHg 76%
    10:00 -6°C° 0 mm 6 mps 743 mmHg 74%
    11:00 -5°C° 0 mm 6 mps 743 mmHg 74%
    12:00 -5°C° 0 mm 6 mps 743 mmHg 74%
    13:00 -4°C° 0 mm 6 mps 743 mmHg 75%
    14:00 -5°C° 0 mm 6 mps 743 mmHg 77%
    15:00 -5°C° 0 mm 5 mps 743 mmHg 79%
    16:00 -5°C° 0 mm 5 mps 743 mmHg 81%
    17:00 -6°C° 0 mm 5 mps 743 mmHg 81%
    18:00 -7°C° 0 mm 5 mps 743 mmHg 81%
    19:00 -8°C° 0 mm 5 mps 743 mmHg 82%
    20:00 -8°C° 0 mm 5 mps 743 mmHg 81%
    21:00 -8°C° 0 mm 5 mps 743 mmHg 81%
    22:00 -7°C° 0 mm 5 mps 743 mmHg 81%
    23:00 -7°C° 0 mm 5 mps 742 mmHg 80%

    29 February, Saturday

    Time Temperature Precipitation Wind Pressure Humidity
    00:00 -8°C° 0 mm 5 mps 742 mmHg 80%
    01:00 -8°C° 0 mm 5 mps 742 mmHg 80%
    02:00 -8°C° 0 mm 5 mps 742 mmHg 79%
    03:00 -10°C° 0 mm 5 mps 741 mmHg 78%
    04:00 -10°C° 0 mm 5 mps 741 mmHg 77%
    05:00 -10°C° 0 mm 5 mps 741 mmHg 78%
    06:00 -11°C° 0 mm 5 mps 741 mmHg 78%
    07:00 -11°C° 0 mm 6 mps 740 mmHg 78%
    08:00 -11°C° 0 mm 6 mps 740 mmHg 78%
    09:00 -10°C° 0 mm 6 mps 740 mmHg 78%
    10:00 -11°C° 0 mm 7 mps 739 mmHg 77%
    11:00 -9°C° 0 mm 7 mps 739 mmHg 78%
    12:00 -8°C° 0 mm 7 mps 738 mmHg 79%
    13:00 -7°C° 0 mm 7 mps 738 mmHg 80%
    14:00 -7°C° 0 mm 7 mps 738 mmHg 82%
    15:00 -6°C° 0 mm 6 mps 737 mmHg 84%
    16:00 -6°C° 0 mm 6 mps 737 mmHg 86%
    17:00 -8°C° 0 mm 6 mps 737 mmHg 87%
    18:00 -7°C° 0 mm 5 mps 737 mmHg 89%
    19:00 -8°C° 0 mm 5 mps 737 mmHg 90%
    20:00 -8°C° 0 mm 5 mps 737 mmHg 91%
    21:00 -8°C° 0 mm 4 mps 737 mmHg 91%
    22:00 -8°C° 0 mm 4 mps 736 mmHg 91%
    23:00 -8°C° 0 mm 4 mps 736 mmHg 92%

    1 March, Sunday

    Time Temperature Precipitation Wind Pressure Humidity
    00:00 -9°C° 0 mm 4 mps 736 mmHg 92%
    01:00 -9°C° 0 mm 4 mps 736 mmHg 93%
    02:00 -10°C° 0 mm 4 mps 736 mmHg 94%
    03:00 -9°C° 0 mm 3 mps 736 mmHg 94%
    04:00 -10°C° 0 mm 3 mps 736 mmHg 95%
    05:00 -10°C° 0 mm 3 mps 736 mmHg 95%
    06:00 -10°C° 0 mm 3 mps 736 mmHg 95%
    07:00 -9°C° 0 mm 2 mps 736 mmHg 95%
    08:00 -8°C° 0 mm 2 mps 736 mmHg 94%
    09:00 -7°C° 0 mm 2 mps 736 mmHg 94%
    10:00 -6°C° 0 mm 2 mps 736 mmHg 94%
    11:00 -6°C° 0 mm 2 mps 736 mmHg 93%
    12:00 -5°C° 0 mm 2 mps 736 mmHg 93%
    13:00 -4°C° 0 mm 2 mps 736 mmHg 92%
    14:00 -4°C° 0 mm 2 mps 736 mmHg 93%
    15:00 -5°C° 0 mm 2 mps 736 mmHg 93%
    16:00 -5°C° 0 mm 2 mps 735 mmHg 94%
    17:00 -6°C° 0 mm 2 mps 735 mmHg 94%
    18:00 -6°C° 0 mm 2 mps 735 mmHg 94%
    19:00 -7°C° 0 mm 2 mps 735 mmHg 94%
    20:00 -7°C° 0 mm 2 mps 735 mmHg 94%
    21:00 -7°C° 0 mm 2 mps 735 mmHg 94%
    22:00 -8°C° 0 mm 2 mps 735 mmHg 94%
    23:00 -8°C° 0 mm 2 mps 734 mmHg 94%
    Show more